[[{"header":{"parameterUnit":"m.s-1","parameterCategory":2,"la1":30.2991,"la2":30.254,"lo1":-89.0895,"lo2":-89.0444,"dy":0.0017,"dx":0.0017,"nx":28,"ny":28,"refTime":"2023-09-14T21:00:00:Z","depth":"0","parameterNumber":2,"parameterNumberName":"U-component_of_CURRENTS"},"data":[0,0,0,0,0,0,0,0,0,0,0,0,0,0,0,0,0,0,0,0,0,0,0,0,0,0,0,0,0,0,0,0,0,0,0,0,0,0,0,0,0,0,0,0,0,0,0,0,0,0,0,0,0,0,0,0,0,0,0.1389,0.1389,0,0.1379,0.1379,0.1379,0.1376,0.1376,0.1377,0.1377,0.1354,0.1353,0.1352,0,0,0,0,0,0,0,0,0,0,0,0,0,0.1386,0.1386,0.1389,0.1389,0.1389,0.138,0.1379,0.1379,0.1376,0.1376,0.1377,0.1377,0.1354,0.1353,0.1352,0,0,0,0,0,0,0,0,0,0,0,0,0,0.1381,0.1386,0.1389,0.1388,0.1388,0.138,0.1379,0.1379,0.1376,0.1376,0.1377,0.1377,0.1355,0.1353,0.1352,0.1336,0,0,0.1348,0.1348,0,0,0,0,0,0,0,0,0.1381,0.1381,0.1388,0.1388,0.1388,0.1381,0.137,0.1365,0.1376,0.1378,0.1377,0.1377,0.1363,0.1361,0.1355,0.1335,0.1334,0.1348,0.1347,0.1347,0.1347,0,0,0,0,0,0,0,0.1382,0.1381,0.1382,0.1388,0.1388,0.1383,0.1382,0.1369,0.1366,0.1378,0.1378,0.1381,0.1363,0.1357,0.1355,0.1334,0.1348,0.1347,0.1346,0.1346,0.1325,0.1325,0,0,0,0,0,0,0.1388,0.1381,0.1383,0.1382,0.1388,0.1383,0.1382,0.1381,0.1367,0.1366,0.1381,0.1381,0.1359,0.1356,0.1354,0.136,0.1347,0.1346,0.1345,0.1324,0.1325,0.1325,0,0,0,0,0,0,0.1388,0.1388,0.1383,0.1384,0.1383,0.1383,0.1381,0.1381,0.1379,0.137,0.1368,0.1381,0.1359,0.1356,0.135,0.1358,0.1345,0.1344,0.1324,0.1324,0.1325,0.1356,0,0,0,0,0,0,0.1388,0.1388,0.1388,0.1384,0.1384,0.1382,0.1381,0.138,0.1381,0.1382,0.1369,0.1367,0.1359,0.1352,0.1349,0.1356,0.1343,0.1324,0.1324,0.1325,0.1355,0.1357,0.1359,0,0,0,0,0,0.1388,0.1389,0.1388,0.1389,0.1384,0.1382,0.1381,0.138,0.1381,0.138,0.1375,0.1368,0.1353,0.1351,0.1348,0.1355,0.1324,0.1324,0.1325,0.1353,0.1357,0.1359,0,0,0,0,0,0,0.1389,0.1389,0.1388,0.139,0.1388,0.1383,0.1383,0.1382,0.1376,0.1377,0.1367,0.1365,0.1365,0.1353,0.1352,0.135,0.1338,0.1337,0.1361,0.1364,0.1366,0.1371,0.1342,0,0,0,0,0,0.139,0.1389,0.1389,0.1389,0.139,0.1386,0.1385,0.1384,0.138,0.1378,0.137,0.1363,0.1362,0.1358,0.1351,0.1345,0.1361,0.1348,0.135,0.1352,0.1353,0.1388,0.1394,0.1326,0.1326,0.1326,0,0,0.1389,0.1389,0.1388,0.1389,0.1387,0.1389,0.1386,0.1386,0.1388,0.1376,0.1373,0.137,0.1363,0.1362,0.1361,0.1354,0.1383,0.1353,0.1355,0.1355,0.1389,0.1396,0.1402,0.1327,0.1327,0.1327,0,0,0.1386,0.1389,0.1387,0.1389,0.1391,0.1391,0.1393,0.1389,0.1389,0.1385,0.1384,0.1388,0.1373,0.1377,0.1376,0.1386,0.1396,0.138,0.1394,0.1428,0.1435,0.144,0.1486,0.1496,0.138,0.138,0.138,0,0.1387,0.1384,0.1386,0.1388,0.1394,0.1394,0.1398,0.1397,0.1391,0.1394,0.1388,0.139,0.1383,0.1397,0.1401,0.1393,0.1417,0.1386,0.1433,0.1439,0.1444,0.149,0.15,0.1381,0.1381,0.1381,0.1381,0,0.138,0.1384,0.1385,0.1389,0.1396,0.1398,0.1405,0.1406,0.1407,0.1408,0.1419,0.1414,0.142,0.1418,0.141,0.1441,0.145,0.1436,0.143,0.1453,0.15,0.151,0.1384,0.1383,0.1383,0.1382,0,0,0.137,0.1378,0.1379,0.1385,0.1399,0.1401,0.1413,0.1423,0.1435,0.1432,0.1452,0.145,0.1454,0.1454,0.1451,0.1472,0.1534,0.1468,0.147,0.1521,0.1624,0.1639,0.1651,0.1532,0.1533,0.1534,0.1649,0,0.1365,0.1366,0.1376,0.1387,0.1392,0.1408,0.1422,0.1434,0.1443,0.1461,0.1469,0.1485,0.1467,0.1478,0.1498,0.1525,0.1558,0.1505,0.1587,0.159,0.1605,0.1662,0.1575,0.167,0.1658,0.166,0.1661,0,0.1354,0.1359,0.1365,0.139,0.1396,0.1405,0.1434,0.1445,0.1475,0.1487,0.1509,0.152,0.1556,0.1534,0.1605,0.1574,0.1603,0.1621,0.1625,0.1633,0.1622,0.164,0.1688,0.1619,0.1677,0.1675,0.1674,0,0.1338,0.1354,0.1357,0.1365,0.1392,0.1403,0.1418,0.1449,0.1467,0.1508,0.1537,0.1572,0.1604,0.164,0.1683,0.1651,0.1768,0.173,0.1775,0.1777,0.1714,0.1708,0.1708,0.1787,0.1787,0.1787,0.1786,0,0.1331,0.1336,0.1349,0.1354,0.137,0.1393,0.1418,0.1441,0.1481,0.1521,0.155,0.1598,0.1632,0.1699,0.172,0.1797,0.1809,0.1798,0.1812,0.1724,0.1718,0.1663,0.1633,0.1791,0.179,0.1789,0.1788,0,0.1317,0.1322,0.1331,0.1354,0.1362,0.1373,0.1413,0.1434,0.148,0.1537,0.1558,0.1634,0.1733,0.1783,0.186,0.1858,0.1861,0.1939,0.1844,0.1844,0.1796,0.1772,0.1737,0.1687,0.2002,0.2003,0.2004,0,0.1309,0.1308,0.1325,0.1331,0.1342,0.1361,0.1381,0.1424,0.1458,0.1566,0.1601,0.1712,0.1784,0.1915,0.1951,0.2021,0.1926,0.1964,0.1876,0.1804,0.1786,0.1688,0.1641,0.1814,0.1813,0.1813,0.1812,0,0.13,0.1301,0.1307,0.1317,0.1333,0.1348,0.1383,0.1407,0.148,0.1535,0.1626,0.1688,0.1842,0.1874,0.1977,0.1998,0.1846,0.1955,0.1894,0.1661,0.154,0.1494,0.1741,0.1807,0.1808,0.1808,0.1809,0.1809,0.129,0.1289,0.1292,0.1301,0.1316,0.1327,0.1326,0.1378,0.142,0.1498,0.1596,0.1666,0.1758,0.189,0.1907,0.1867,0.1856,0.1778,0.1765,0.1682,0.1587,0.1841,0.1911,0.1912,0.1913,0.1914,0.1914,0,0.1271,0.1271,0.1278,0.1277,0.1275,0.1293,0.1322,0.1316,0.1348,0.1447,0.151,0.1583,0.163,0.1694,0.1721,0.1662,0.1556,0.1605,0.1419,0.1392,0.1632,0.1575,0.1557,0.1557,0.1557,0.1557,0.1557,0.1558,0.1261,0.1252,0.1252,0.1232,0.1231,0.1205,0.1205,0.1211,0.1255,0.1296,0.1335,0.1401,0.1487,0.1522,0.1475,0.1451,0.1325,0.1269,0.1276,0.1414,0.1426,0.1438,0.1376,0.1317,0.1316,0.0939,0.0936,0.0934]},{"header":{"parameterUnit":"m.s-1","parameterCategory":2,"la1":30.2991,"la2":30.254,"lo1":-89.0895,"lo2":-89.0444,"dy":0.0017,"dx":0.0017,"nx":28,"ny":28,"refTime":"2023-09-14T21:00:00:Z","depth":"0","parameterNumber":3,"parameterNumberName":"V-component_of_CURRENTS"},"data":[0,0,0,0,0,0,0,0,0,0,0,0,0,0,0,0,0,0,0,0,0,0,0,0,0,0,0,0,0,0,0,0,0,0,0,0,0,0,0,0,0,0,0,0,0,0,0,0,0,0,0,0,0,0,0,0,0,0,-0.0041,-0.0041,0,-0.0082,-0.0083,-0.0084,-0.0119,-0.0119,-0.0119,-0.0119,-0.0182,-0.0183,-0.0185,0,0,0,0,0,0,0,0,0,0,0,0,0,-0.002,-0.002,-0.0041,-0.0041,-0.0041,-0.0082,-0.0083,-0.0084,-0.0118,-0.0119,-0.0119,-0.012,-0.0181,-0.0183,-0.0185,0,0,0,0,0,0,0,0,0,0,0,0,0,-0.0043,-0.002,-0.0041,-0.0063,-0.0065,-0.0082,-0.0083,-0.0084,-0.0118,-0.0119,-0.0119,-0.012,-0.0181,-0.0183,-0.0185,-0.0189,0,0,-0.0191,-0.0192,0,0,0,0,0,0,0,0,-0.0041,-0.0044,-0.0059,-0.0062,-0.0064,-0.0095,-0.0099,-0.012,-0.0118,-0.0099,-0.0119,-0.012,-0.0154,-0.0158,-0.0166,-0.0192,-0.0195,-0.0191,-0.0193,-0.0194,-0.0194,0,0,0,0,0,0,0,-0.004,-0.0042,-0.0058,-0.006,-0.0063,-0.0081,-0.0085,-0.0103,-0.0125,-0.0101,-0.0103,-0.0106,-0.0155,-0.0164,-0.0168,-0.0196,-0.0191,-0.0193,-0.0195,-0.0195,-0.0236,-0.0236,0,0,0,0,0,0,-0.0031,-0.0041,-0.0057,-0.0059,-0.0053,-0.0081,-0.0085,-0.0085,-0.0124,-0.013,-0.0106,-0.0108,-0.016,-0.0165,-0.017,-0.0182,-0.0194,-0.0196,-0.0197,-0.0237,-0.0236,-0.0236,0,0,0,0,0,0,-0.003,-0.0032,-0.0055,-0.005,-0.0055,-0.008,-0.0081,-0.0086,-0.0094,-0.0127,-0.0134,-0.0109,-0.0161,-0.0167,-0.0186,-0.0185,-0.0197,-0.0198,-0.0237,-0.0236,-0.0236,-0.0203,0,0,0,0,0,0,-0.0029,-0.0031,-0.0029,-0.005,-0.0054,-0.006,-0.0081,-0.0086,-0.0095,-0.0098,-0.0132,-0.0138,-0.0162,-0.0182,-0.0188,-0.0188,-0.02,-0.0237,-0.0237,-0.0236,-0.0204,-0.0202,-0.0199,0,0,0,0,0,-0.0028,-0.0021,-0.0028,-0.0031,-0.005,-0.0059,-0.0063,-0.0084,-0.0094,-0.0094,-0.0119,-0.0137,-0.0184,-0.0184,-0.019,-0.0191,-0.0237,-0.0237,-0.0236,-0.0206,-0.0202,-0.02,0,0,0,0,0,0,-0.0009,-0.0025,-0.0033,-0.0031,-0.0042,-0.0065,-0.0067,-0.008,-0.0099,-0.0103,-0.0135,-0.0143,-0.016,-0.0177,-0.0176,-0.0201,-0.0213,-0.0214,-0.0188,-0.0185,-0.0183,-0.0165,-0.0202,0,0,0,0,0,-0.0003,-0.0002,-0.002,-0.0016,-0.0021,-0.0043,-0.0049,-0.0062,-0.0081,-0.009,-0.0114,-0.0139,-0.0163,-0.0175,-0.0196,-0.0208,-0.0216,-0.0213,-0.021,-0.0208,-0.0198,-0.0212,-0.021,-0.0235,-0.0235,-0.0235,0,0,0.0006,-0.0001,-0.0001,-0.0012,-0.0023,-0.0027,-0.0048,-0.0053,-0.0056,-0.0094,-0.0105,-0.0131,-0.0164,-0.018,-0.0189,-0.0195,-0.0204,-0.0208,-0.0206,-0.0196,-0.0212,-0.0209,-0.0207,-0.0235,-0.0235,-0.0235,0,0,0.0026,0.0018,0.0023,0.0015,0.0003,-0.0011,-0.001,-0.003,-0.004,-0.0052,-0.0082,-0.0103,-0.0136,-0.016,-0.0177,-0.0171,-0.019,-0.0181,-0.0156,-0.017,-0.0168,-0.0166,-0.0165,-0.0163,-0.0181,-0.0181,-0.0181,0,0.0036,0.004,0.0025,0.0026,0.0021,-0.0001,0.0002,-0.001,-0.0032,-0.0037,-0.0049,-0.0096,-0.0125,-0.0148,-0.0149,-0.0165,-0.0171,-0.0165,-0.0166,-0.0165,-0.0163,-0.0163,-0.0161,-0.0179,-0.0179,-0.0179,-0.0179,0,0.0056,0.0057,0.0061,0.0054,0.0048,0.0049,0.0031,0.0027,0.0013,-0.0002,-0.002,-0.0058,-0.0084,-0.0101,-0.0125,-0.0134,-0.014,-0.0161,-0.0172,-0.0159,-0.0159,-0.0158,-0.0177,-0.0177,-0.0178,-0.0178,0,0,0.0081,0.0076,0.0077,0.0079,0.0063,0.0063,0.0061,0.0052,0.0057,0.003,0.0033,-0.0014,-0.0032,-0.0052,-0.0086,-0.0101,-0.0101,-0.0124,-0.0125,-0.0118,-0.0119,-0.0105,-0.0103,-0.0124,-0.0124,-0.0124,-0.012,0,0.01,0.0113,0.0102,0.0113,0.0116,0.0098,0.0101,0.0091,0.0079,0.0078,0.004,0.0025,-0.0015,-0.0027,-0.0048,-0.0085,-0.0098,-0.0099,-0.0137,-0.0137,-0.0123,-0.0101,-0.0083,-0.0077,-0.012,-0.0119,-0.0119,0,0.0119,0.0126,0.014,0.0146,0.0146,0.0148,0.0152,0.0151,0.014,0.0132,0.011,0.0083,0.0057,0.0021,-0.0028,-0.0026,-0.0066,-0.0097,-0.0098,-0.0094,-0.0121,-0.0099,-0.0074,-0.0155,-0.0118,-0.0118,-0.0118,0,0.0143,0.0152,0.0167,0.0166,0.0168,0.0174,0.0174,0.0167,0.0177,0.0164,0.0179,0.0134,0.0127,0.0069,0.0012,-0.001,-0.0032,-0.0074,-0.0098,-0.0097,-0.0092,-0.0091,-0.0145,-0.0107,-0.0107,-0.0107,-0.0107,0,0.0164,0.0176,0.0181,0.0188,0.0214,0.0201,0.0224,0.022,0.0225,0.026,0.021,0.0233,0.0138,0.0115,0.0043,-0.0006,-0.0008,-0.0079,-0.0093,-0.0079,-0.0077,-0.0156,-0.0204,-0.0107,-0.0107,-0.0107,-0.0107,0,0.0184,0.0185,0.0206,0.0218,0.0224,0.024,0.026,0.0283,0.0282,0.033,0.0332,0.0311,0.0291,0.0209,0.0127,0.005,-0.0049,-0.0036,-0.0002,-0.0012,-0.0121,-0.0167,-0.0199,-0.024,-0.0065,-0.0064,-0.0064,0,0.0194,0.0207,0.0232,0.0253,0.0258,0.028,0.0305,0.0307,0.0342,0.0391,0.0429,0.042,0.0443,0.0335,0.0199,0.0091,-0.0006,0.0009,-0.0038,-0.011,-0.0172,-0.0193,-0.0227,-0.0018,-0.0017,-0.0017,-0.0016,0,0.0218,0.0228,0.0248,0.0292,0.032,0.0358,0.0396,0.0434,0.0467,0.0523,0.0599,0.0621,0.0535,0.0437,0.0276,0.0182,-0.0036,0.0017,-0.0073,-0.0143,-0.0154,-0.0205,-0.0032,-0.0011,-0.0012,-0.0012,-0.0012,-0.0012,0.0239,0.0262,0.0294,0.0337,0.0377,0.0441,0.0486,0.0548,0.0628,0.073,0.0734,0.0791,0.0623,0.0416,0.0285,0.0026,0.0015,-0.0072,-0.0121,-0.0135,-0.0177,0.0022,0.0033,0.0033,0.0032,0.0032,0.0032,0,0.0267,0.0296,0.034,0.0397,0.0454,0.0467,0.0556,0.0616,0.0734,0.0825,0.0899,0.0852,0.0661,0.0426,0.0096,-0.0085,-0.0164,-0.0196,-0.024,-0.0272,-0.0108,-0.011,-0.011,-0.011,-0.011,-0.011,-0.0109,-0.0109,0.0285,0.033,0.0355,0.0453,0.05,0.0585,0.0643,0.074,0.0819,0.0932,0.0968,0.098,0.0796,0.026,-0.013,-0.0239,-0.0376,-0.0382,-0.0467,-0.0381,-0.0374,-0.0367,-0.0381,-0.0437,-0.0438,-0.0604,-0.0606,-0.0607]}],[{"header":{"parameterUnit":"m.s-1","parameterCategory":2,"la1":30.2991,"la2":30.254,"lo1":-89.0895,"lo2":-89.0444,"dy":0.0017,"dx":0.0017,"nx":28,"ny":28,"refTime":"2023-09-14T21:00:00:Z","depth":"2","parameterNumber":2,"parameterNumberName":"U-component_of_CURRENTS"},"data":[0,0,0,0,0,0,0,0,0,0,0,0,0,0,0,0,0,0,0,0,0,0,0,0,0,0,0,0,0,0,0,0,0,0,0,0,0,0,0,0,0,0,0,0,0,0,0,0,0,0,0,0,0,0,0,0,0,0,0.1332,0.1332,0,0.1313,0.1313,0.1312,0.1322,0.1322,0.1323,0.1324,0.1322,0.1322,0.1321,0,0,0,0,0,0,0,0,0,0,0,0,0,0.1317,0.1317,0.1332,0.1332,0.1332,0.1313,0.1313,0.1312,0.1321,0.1322,0.1323,0.1324,0.1323,0.1322,0.1321,0,0,0,0,0,0,0,0,0,0,0,0,0,0.1311,0.1317,0.1332,0.1335,0.1336,0.1313,0.1313,0.1312,0.1321,0.1322,0.1323,0.1324,0.1323,0.1322,0.1321,0.1295,0,0,0.1318,0.1317,0,0,0,0,0,0,0,0,0.1312,0.1312,0.1335,0.1335,0.1335,0.1323,0.1307,0.1308,0.1321,0.1325,0.1324,0.1325,0.1325,0.1323,0.1315,0.1295,0.1295,0.1318,0.1317,0.1317,0.1316,0,0,0,0,0,0,0,0.1312,0.1312,0.1322,0.1335,0.1335,0.1318,0.1319,0.1307,0.1318,0.1324,0.1326,0.1326,0.1325,0.1315,0.1315,0.1295,0.1318,0.1317,0.1316,0.1316,0.1312,0.1312,0,0,0,0,0,0,0.1321,0.1313,0.1323,0.1322,0.1328,0.1318,0.1319,0.1324,0.1318,0.1318,0.1326,0.1327,0.1317,0.1316,0.1315,0.1336,0.1317,0.1316,0.1315,0.1311,0.1312,0.1312,0,0,0,0,0,0,0.132,0.1322,0.1324,0.1318,0.1318,0.1318,0.1323,0.1323,0.1323,0.1319,0.1319,0.1328,0.1317,0.1316,0.1321,0.1334,0.1315,0.1314,0.1311,0.1311,0.1312,0.1345,0,0,0,0,0,0,0.132,0.1322,0.1324,0.1319,0.1318,0.1321,0.1323,0.1322,0.1323,0.1325,0.132,0.1321,0.1318,0.1322,0.132,0.1333,0.1314,0.131,0.1311,0.1312,0.1343,0.1347,0.1349,0,0,0,0,0,0.132,0.132,0.1325,0.1326,0.1323,0.1322,0.1319,0.1321,0.1322,0.1324,0.1327,0.1322,0.1327,0.1322,0.1319,0.1331,0.131,0.1311,0.1312,0.1342,0.1346,0.1349,0,0,0,0,0,0,0.1318,0.1321,0.1326,0.1329,0.1331,0.1324,0.1322,0.1322,0.1322,0.1327,0.1322,0.1323,0.1335,0.1325,0.1319,0.1333,0.1319,0.1319,0.1343,0.1346,0.135,0.1355,0.1313,0,0,0,0,0,0.1318,0.132,0.1323,0.1327,0.1328,0.1325,0.1322,0.1326,0.1327,0.1328,0.1326,0.1327,0.1333,0.1334,0.1334,0.1333,0.1343,0.1341,0.1344,0.1347,0.135,0.1376,0.1382,0.1316,0.1316,0.1316,0,0,0.1319,0.1322,0.1323,0.1327,0.1326,0.1328,0.1326,0.1328,0.1334,0.1327,0.1333,0.1337,0.1336,0.1346,0.135,0.1341,0.1373,0.1348,0.1351,0.1352,0.1378,0.1384,0.139,0.1317,0.1317,0.1316,0,0,0.1319,0.1324,0.1324,0.1328,0.1332,0.1331,0.1335,0.1334,0.1339,0.1343,0.1348,0.1363,0.1355,0.1368,0.137,0.1387,0.1391,0.1386,0.1404,0.1429,0.1435,0.144,0.1474,0.1482,0.1386,0.1386,0.1386,0,0.1319,0.1323,0.1324,0.1328,0.1332,0.1336,0.134,0.1342,0.1345,0.1354,0.1351,0.1368,0.1368,0.1392,0.1403,0.1396,0.1412,0.139,0.1435,0.144,0.1445,0.1477,0.1486,0.1387,0.1387,0.1387,0.1387,0,0.1317,0.1324,0.1325,0.1332,0.1338,0.1342,0.1351,0.1361,0.1366,0.137,0.1395,0.1399,0.1412,0.1417,0.1414,0.145,0.1452,0.1439,0.1427,0.1453,0.1486,0.1494,0.139,0.1389,0.1389,0.1388,0,0,0.1305,0.1319,0.132,0.133,0.1342,0.1348,0.1365,0.1381,0.1399,0.1405,0.1427,0.1443,0.1451,0.1455,0.1459,0.148,0.1533,0.1475,0.1475,0.1511,0.16,0.1559,0.1564,0.1528,0.1529,0.153,0.1614,0,0.1302,0.1309,0.132,0.1335,0.1341,0.136,0.1376,0.1397,0.1413,0.1435,0.145,0.1473,0.1463,0.148,0.1498,0.1526,0.1553,0.1512,0.1565,0.1567,0.153,0.1571,0.1426,0.1484,0.1622,0.1624,0.1624,0,0.1294,0.1303,0.1313,0.1344,0.1349,0.1362,0.14,0.1416,0.1451,0.1467,0.1494,0.1506,0.1546,0.1528,0.1591,0.1566,0.1587,0.1603,0.1607,0.1561,0.1541,0.1476,0.1493,0.1638,0.1637,0.1636,0.1635,0,0.128,0.1299,0.1309,0.1317,0.1349,0.1368,0.1387,0.1426,0.1447,0.1495,0.1523,0.1557,0.159,0.1616,0.165,0.1628,0.1716,0.1689,0.1674,0.1672,0.1554,0.1538,0.1734,0.1733,0.1733,0.1733,0.1733,0,0.127,0.128,0.1305,0.1312,0.1335,0.1364,0.1396,0.1426,0.1468,0.1506,0.1539,0.158,0.1615,0.1663,0.1676,0.1707,0.1741,0.169,0.1692,0.1561,0.1547,0.1676,0.1668,0.1736,0.1735,0.1735,0.1734,0,0.1255,0.1266,0.1284,0.1317,0.1329,0.1348,0.1394,0.1421,0.147,0.1525,0.1546,0.1613,0.1683,0.1717,0.1775,0.1749,0.1777,0.1778,0.1628,0.1609,0.171,0.1703,0.177,0.1769,0.1768,0.1768,0.1767,0,0.1246,0.1252,0.1283,0.1291,0.1307,0.1337,0.1361,0.1413,0.1446,0.1547,0.1574,0.1661,0.1696,0.1763,0.1752,0.1772,0.1802,0.1639,0.156,0.172,0.1715,0.1709,0.1703,0.1427,0.1424,0.1421,0.1419,0,0.1236,0.1246,0.1262,0.1277,0.13,0.1322,0.1363,0.1382,0.1459,0.1505,0.1572,0.1605,0.1679,0.1618,0.1645,0.1634,0.1618,0.1586,0.1803,0.1434,0.1401,0.1395,0.14,0.1396,0.1398,0.14,0.1401,0.1402,0.123,0.1234,0.1249,0.1261,0.1285,0.1297,0.1296,0.1341,0.1373,0.1418,0.1498,0.1496,0.1508,0.1462,0.1432,0.1415,0.1522,0.1434,0.144,0.1449,0.1387,0.1355,0.1331,0.1333,0.1334,0.1336,0.1337,0,0.1211,0.1219,0.123,0.1239,0.124,0.1268,0.129,0.1266,0.1275,0.1323,0.1344,0.123,0.1186,0.1218,0.1149,0.1146,0.1121,0.1102,0.1045,0.1069,0.1091,0.1008,0.0853,0.0851,0.085,0.0848,0,0,0.1205,0.1198,0.1198,0.1187,0.1194,0.1178,0.1172,0.114,0.1138,0.1095,0.1075,0.1132,0.1169,0.0988,0.0969,0.0897,0.0975,0.0865,0.1256,0.1213,0.1232,0.1287,0.1189,0,0,0,0,0]},{"header":{"parameterUnit":"m.s-1","parameterCategory":2,"la1":30.2991,"la2":30.254,"lo1":-89.0895,"lo2":-89.0444,"dy":0.0017,"dx":0.0017,"nx":28,"ny":28,"refTime":"2023-09-14T21:00:00:Z","depth":"2","parameterNumber":3,"parameterNumberName":"V-component_of_CURRENTS"},"data":[0,0,0,0,0,0,0,0,0,0,0,0,0,0,0,0,0,0,0,0,0,0,0,0,0,0,0,0,0,0,0,0,0,0,0,0,0,0,0,0,0,0,0,0,0,0,0,0,0,0,0,0,0,0,0,0,0,0,0.0061,0.006,0,0.0025,0.0025,0.0024,-0.0009,-0.0009,-0.001,-0.001,-0.0082,-0.0084,-0.0085,0,0,0,0,0,0,0,0,0,0,0,0,0,0.0091,0.0091,0.0061,0.006,0.006,0.0025,0.0025,0.0024,-0.0009,-0.0009,-0.001,-0.001,-0.0081,-0.0083,-0.0085,0,0,0,0,0,0,0,0,0,0,0,0,0,0.0068,0.009,0.0061,0.004,0.0038,0.0026,0.0025,0.0024,-0.0009,-0.0009,-0.001,-0.001,-0.0081,-0.0083,-0.0086,-0.0091,0,0,-0.0093,-0.0094,0,0,0,0,0,0,0,0,0.0069,0.0067,0.0043,0.0041,0.0039,0.0013,0.0009,-0.0016,-0.0009,0.0008,-0.001,-0.0011,-0.0053,-0.0057,-0.0064,-0.0094,-0.0097,-0.0093,-0.0095,-0.0096,-0.0096,0,0,0,0,0,0,0,0.0071,0.0068,0.0046,0.0043,0.004,0.003,0.0026,0.0004,-0.0021,0.0006,0.0004,0.0002,-0.0054,-0.0061,-0.0066,-0.0098,-0.0093,-0.0095,-0.0097,-0.0098,-0.0154,-0.0154,0,0,0,0,0,0,0.0078,0.007,0.0047,0.0045,0.0055,0.003,0.0025,0.0021,-0.002,-0.0026,0.0002,0.0001,-0.0057,-0.0063,-0.0069,-0.0089,-0.0096,-0.0098,-0.0099,-0.0154,-0.0154,-0.0154,0,0,0,0,0,0,0.0079,0.0077,0.0048,0.0057,0.0053,0.003,0.0025,0.0021,0.0012,-0.0022,-0.0029,-0.0002,-0.0058,-0.0065,-0.009,-0.0092,-0.0099,-0.0101,-0.0154,-0.0154,-0.0154,-0.0123,0,0,0,0,0,0,0.008,0.0077,0.0077,0.0058,0.0053,0.0041,0.0026,0.002,0.0012,0.0009,-0.0028,-0.0035,-0.0059,-0.0086,-0.0092,-0.0095,-0.0103,-0.0154,-0.0154,-0.0154,-0.0124,-0.0122,-0.012,0,0,0,0,0,0.0081,0.0084,0.0077,0.0075,0.0054,0.0041,0.0037,0.0018,0.0012,0.0009,-0.0017,-0.0034,-0.0091,-0.0088,-0.0095,-0.0099,-0.0154,-0.0154,-0.0154,-0.0125,-0.0122,-0.012,0,0,0,0,0,0,0.0095,0.008,0.0073,0.007,0.0057,0.0036,0.0033,0.0022,0.0,-0.0003,-0.0035,-0.0044,-0.0067,-0.0086,-0.0081,-0.0115,-0.0125,-0.0127,-0.0101,-0.0099,-0.0097,-0.0079,-0.0105,0,0,0,0,0,0.01,0.0098,0.0081,0.0079,0.0074,0.0055,0.0048,0.0036,0.0016,0.0006,-0.0019,-0.0046,-0.0072,-0.0087,-0.0111,-0.0128,-0.0135,-0.0136,-0.0134,-0.0132,-0.0123,-0.0135,-0.0133,-0.0154,-0.0154,-0.0154,0,0,0.0104,0.0097,0.0095,0.0082,0.0071,0.0066,0.0049,0.0041,0.0037,0.0001,-0.0013,-0.0041,-0.0075,-0.0096,-0.0108,-0.0113,-0.013,-0.0132,-0.0131,-0.0122,-0.0135,-0.0133,-0.0131,-0.0154,-0.0154,-0.0154,0,0,0.0115,0.0107,0.0109,0.0101,0.0088,0.0077,0.0076,0.0056,0.0046,0.003,0.0002,-0.0022,-0.0059,-0.0084,-0.0101,-0.0102,-0.0119,-0.0114,-0.0092,-0.0104,-0.0102,-0.0101,-0.0103,-0.0102,-0.0113,-0.0113,-0.0113,0,0.0121,0.0121,0.0107,0.0107,0.0104,0.0084,0.0085,0.0073,0.0047,0.0042,0.003,-0.002,-0.0051,-0.0076,-0.008,-0.0097,-0.0103,-0.0097,-0.01,-0.0099,-0.0098,-0.0102,-0.0101,-0.0112,-0.0112,-0.0112,-0.0112,0,0.0131,0.0131,0.0133,0.0126,0.012,0.0119,0.0103,0.0097,0.0084,0.0071,0.0048,0.0009,-0.0019,-0.0037,-0.0061,-0.0073,-0.0079,-0.0095,-0.0103,-0.0094,-0.0098,-0.0098,-0.011,-0.011,-0.0111,-0.0111,0,0,0.0143,0.0141,0.0142,0.0146,0.0132,0.013,0.0126,0.0118,0.0122,0.0093,0.0094,0.0044,0.0027,0.0007,-0.0028,-0.0043,-0.0045,-0.0063,-0.0065,-0.006,-0.0064,-0.0074,-0.0074,-0.0063,-0.0063,-0.0063,-0.0069,0,0.0155,0.0166,0.0158,0.0168,0.0172,0.0157,0.0159,0.0149,0.0137,0.0133,0.0097,0.008,0.0042,0.0029,0.0009,-0.0031,-0.0044,-0.0042,-0.0078,-0.0079,-0.0084,-0.0074,-0.0064,-0.0068,-0.0068,-0.0068,-0.0068,0,0.0166,0.0174,0.0186,0.0196,0.0197,0.0198,0.0202,0.02,0.0189,0.018,0.0159,0.0133,0.0104,0.0072,0.0022,0.0025,-0.0013,-0.0044,-0.0045,-0.0063,-0.0089,-0.0079,-0.0068,-0.0068,-0.0068,-0.0068,-0.0068,0,0.0184,0.0194,0.0208,0.0209,0.0215,0.0219,0.022,0.0214,0.0223,0.0209,0.022,0.0177,0.0167,0.0113,0.0051,0.0036,0.0003,-0.0027,-0.0071,-0.0071,-0.0073,-0.0075,-0.0058,-0.0058,-0.0058,-0.0058,-0.0058,0,0.0199,0.0211,0.0219,0.0228,0.0252,0.0243,0.0264,0.026,0.0265,0.0294,0.0247,0.0262,0.0178,0.0148,0.0078,0.0015,0.0025,-0.0058,-0.0073,-0.0063,-0.0063,-0.0074,-0.0075,-0.0059,-0.0059,-0.0059,-0.0058,0,0.0214,0.0218,0.0239,0.0253,0.026,0.0276,0.0297,0.0318,0.0316,0.0355,0.0357,0.0332,0.0294,0.0212,0.0131,0.006,-0.001,-0.0038,-0.0015,-0.0028,-0.0084,-0.0085,-0.0088,-0.0088,-0.0089,-0.0089,-0.0089,0,0.0221,0.0233,0.0261,0.0281,0.0288,0.031,0.0334,0.034,0.0371,0.0407,0.0438,0.0412,0.0402,0.0278,0.0148,0.003,0.0007,-0.0043,-0.0078,-0.0073,-0.0087,-0.0087,-0.0086,-0.0066,-0.0066,-0.0066,-0.0066,0,0.0239,0.0249,0.027,0.0313,0.0341,0.0378,0.0415,0.0447,0.0477,0.0514,0.0561,0.0553,0.0442,0.0321,0.0151,0.0066,-0.0027,-0.0048,-0.0042,-0.0063,-0.0054,-0.0067,-0.0067,-0.0066,-0.0066,-0.0066,-0.0066,-0.0066,0.0254,0.0276,0.0308,0.0349,0.0389,0.0447,0.0482,0.0533,0.0592,0.0646,0.064,0.0622,0.0488,0.026,0.0129,-0.0017,-0.0023,-0.0086,-0.0085,-0.0085,-0.0084,-0.0076,-0.0092,-0.0092,-0.0092,-0.0092,-0.0092,0,0.0273,0.0302,0.0343,0.0397,0.0448,0.0467,0.0541,0.0575,0.0652,0.0688,0.0708,0.0573,0.0436,0.0288,0.0072,-0.0061,-0.0074,-0.0101,-0.0087,-0.0086,-0.0086,-0.0085,-0.0093,-0.0094,-0.0094,-0.0094,0,0,0.0285,0.0325,0.0349,0.0435,0.048,0.0552,0.0597,0.0648,0.0679,0.0703,0.0687,0.0636,0.0466,0.031,0.0142,0.0028,-0.0002,0.0001,0.0014,0.005,0.0053,-0.0067,-0.0063,0,0,0,0,0]}],[{"header":{"parameterUnit":"m.s-1","parameterCategory":2,"la1":30.2991,"la2":30.254,"lo1":-89.0895,"lo2":-89.0444,"dy":0.0017,"dx":0.0017,"nx":28,"ny":28,"refTime":"2023-09-14T21:00:00:Z","depth":"4","parameterNumber":2,"parameterNumberName":"U-component_of_CURRENTS"},"data":[0,0,0,0,0,0,0,0,0,0,0,0,0,0,0,0,0,0,0,0,0,0,0,0,0,0,0,0,0,0,0,0,0,0,0,0,0,0,0,0,0,0,0,0,0,0,0,0,0,0,0,0,0,0,0,0,0,0,0.0659,0.066,0,0.0685,0.0685,0.0685,0.0708,0.0708,0.0708,0.0709,0.0731,0.0731,0.0731,0,0,0,0,0,0,0,0,0,0,0,0,0,0.0651,0.0651,0.0659,0.066,0.066,0.0685,0.0685,0.0685,0.0708,0.0708,0.0708,0.0709,0.073,0.0731,0.0731,0,0,0,0,0,0,0,0,0,0,0,0,0,0.0663,0.0651,0.0659,0.0675,0.0676,0.0684,0.0685,0.0685,0.0708,0.0708,0.0709,0.0709,0.073,0.0731,0.0731,0.0725,0,0,0.0733,0.0733,0,0,0,0,0,0,0,0,0.0662,0.0663,0.0672,0.0674,0.0675,0.0694,0.069,0.0698,0.0708,0.0695,0.0709,0.0709,0.0718,0.0719,0.0723,0.0726,0.0727,0.0733,0.0733,0.0733,0.0733,0,0,0,0,0,0,0,0.0661,0.0662,0.0669,0.0672,0.0674,0.0687,0.0689,0.0692,0.0703,0.0696,0.0698,0.0701,0.0719,0.0722,0.0723,0.0727,0.0733,0.0733,0.0733,0.0734,0.0777,0.0778,0,0,0,0,0,0,0.0657,0.0661,0.0668,0.067,0.067,0.0687,0.0689,0.0687,0.0704,0.0707,0.0701,0.0702,0.0721,0.0723,0.0724,0.0758,0.0733,0.0734,0.0734,0.0776,0.0777,0.0778,0,0,0,0,0,0,0.0657,0.0657,0.0667,0.0667,0.0669,0.0686,0.0684,0.0687,0.0709,0.0707,0.071,0.0722,0.0722,0.0724,0.0742,0.0757,0.0734,0.0734,0.0775,0.0776,0.0777,0.0799,0,0,0,0,0,0,0.0656,0.0657,0.0666,0.0666,0.0669,0.0683,0.0684,0.0688,0.071,0.0712,0.0726,0.0727,0.0722,0.0741,0.0742,0.0757,0.0735,0.0774,0.0775,0.0777,0.0797,0.0801,0.0804,0,0,0,0,0,0.0656,0.0663,0.0666,0.0668,0.0677,0.0683,0.0686,0.07,0.0711,0.0721,0.0732,0.0728,0.0753,0.0742,0.0743,0.0759,0.0773,0.0775,0.0777,0.0795,0.08,0.0804,0,0,0,0,0,0,0.0666,0.0666,0.067,0.0678,0.0685,0.0687,0.0704,0.0711,0.0728,0.0738,0.0736,0.0738,0.0764,0.0758,0.0747,0.0777,0.0763,0.0766,0.0777,0.0781,0.0785,0.0793,0.0735,0,0,0,0,0,0.0671,0.0678,0.0678,0.0688,0.0693,0.0702,0.0712,0.072,0.073,0.0739,0.0748,0.0759,0.0769,0.0774,0.0784,0.0794,0.0797,0.0807,0.081,0.0813,0.0821,0.0837,0.0843,0.0784,0.0784,0.0784,0,0,0.0683,0.0681,0.0689,0.0692,0.0701,0.0707,0.071,0.0729,0.0738,0.0738,0.0764,0.0776,0.0778,0.0795,0.0805,0.0792,0.0831,0.0816,0.0818,0.0825,0.084,0.0845,0.085,0.0786,0.0785,0.0785,0,0,0.0696,0.0703,0.0711,0.0715,0.0727,0.0729,0.0738,0.075,0.0763,0.0784,0.0789,0.0811,0.0824,0.0828,0.083,0.0858,0.0855,0.0865,0.088,0.0895,0.09,0.0904,0.0912,0.0916,0.0858,0.0858,0.0858,0,0.0712,0.0711,0.0717,0.0719,0.0725,0.0739,0.0746,0.0758,0.0777,0.0793,0.0798,0.0834,0.0839,0.0854,0.0868,0.0866,0.0873,0.0861,0.0899,0.0903,0.0907,0.0914,0.0919,0.086,0.0859,0.0859,0.0859,0,0.0722,0.0726,0.0732,0.0736,0.0745,0.0756,0.0764,0.0786,0.0806,0.0821,0.0856,0.0864,0.0886,0.089,0.0889,0.0919,0.0915,0.0907,0.0886,0.0914,0.092,0.0924,0.0861,0.0861,0.0861,0.086,0,0,0.0741,0.074,0.0744,0.0742,0.0754,0.0757,0.078,0.0801,0.082,0.0852,0.088,0.0905,0.0924,0.0928,0.0929,0.094,0.0975,0.094,0.094,0.0944,0.1009,0.0948,0.0948,0.0975,0.0976,0.0977,0.1,0,0.0748,0.0748,0.075,0.0757,0.0754,0.0771,0.079,0.0816,0.0837,0.0871,0.0898,0.0932,0.0931,0.0949,0.0962,0.0982,0.099,0.097,0.0985,0.0986,0.0925,0.0952,0.098,0.1003,0.1005,0.1005,0.1006,0,0.075,0.0746,0.0751,0.0754,0.0759,0.0775,0.0801,0.0821,0.087,0.089,0.0927,0.0955,0.0997,0.0987,0.1025,0.1015,0.102,0.1023,0.1023,0.0964,0.0934,0.0971,0.1014,0.1014,0.1013,0.1013,0.1012,0,0.0739,0.0745,0.0747,0.0748,0.0761,0.078,0.0803,0.084,0.0861,0.0915,0.0942,0.0985,0.1025,0.1039,0.1063,0.1052,0.1096,0.1076,0.1019,0.1014,0.1052,0.1047,0.1096,0.1096,0.1096,0.1096,0.1096,0,0.0725,0.0727,0.0748,0.0746,0.0763,0.0782,0.081,0.0836,0.0885,0.0916,0.0962,0.0987,0.1045,0.1078,0.1079,0.1069,0.111,0.103,0.1019,0.1059,0.1055,0.1055,0.1049,0.1097,0.1097,0.1096,0.1096,0,0.0696,0.0713,0.0714,0.0741,0.0753,0.0772,0.0816,0.0834,0.0884,0.0925,0.0955,0.102,0.1062,0.1092,0.1125,0.1088,0.1082,0.1063,0.1112,0.1102,0.0984,0.0979,0.0999,0.0997,0.0995,0.0994,0.0993,0,0.0675,0.0674,0.0708,0.0719,0.0734,0.0763,0.0784,0.0832,0.0849,0.093,0.095,0.1025,0.1057,0.1052,0.1085,0.1078,0.106,0.1045,0.1007,0.0988,0.0976,0.0974,0.0972,0.099,0.099,0.0989,0.0989,0,0.063,0.0657,0.066,0.0687,0.0712,0.0724,0.0762,0.0768,0.083,0.0886,0.0924,0.0951,0.0995,0.1018,0.1026,0.1014,0.105,0.1028,0.1031,0.0995,0.0978,0.0967,0.0967,0.0983,0.0984,0.0985,0.0985,0,0.0604,0.0601,0.0623,0.0639,0.0667,0.0676,0.07,0.0724,0.0751,0.0841,0.0857,0.0924,0.0994,0.0986,0.099,0.0981,0.0957,0.0912,0.092,0.0927,0.0891,0.0858,0.0824,0,0,0,0,0,0.0567,0.0561,0.0572,0.0582,0.0611,0.0633,0.0674,0.0701,0.0763,0.0769,0.0809,0.0844,0.0868,0.0903,0.0878,0.0946,0.0954,0.0911,0.0905,0.0953,0.0959,0.0923,0,0,0,0,0,0,0.0543,0.055,0.055,0.0531,0.0536,0.0558,0.0587,0.0635,0.0637,0.0711,0.073,0.079,0.0825,0.0877,0.0863,0.0871,0.0848,0.0953,0.0951,0.0949,0.0955,0.096,0.0926,0,0,0,0,0]},{"header":{"parameterUnit":"m.s-1","parameterCategory":2,"la1":30.2991,"la2":30.254,"lo1":-89.0895,"lo2":-89.0444,"dy":0.0017,"dx":0.0017,"nx":28,"ny":28,"refTime":"2023-09-14T21:00:00:Z","depth":"4","parameterNumber":3,"parameterNumberName":"V-component_of_CURRENTS"},"data":[0,0,0,0,0,0,0,0,0,0,0,0,0,0,0,0,0,0,0,0,0,0,0,0,0,0,0,0,0,0,0,0,0,0,0,0,0,0,0,0,0,0,0,0,0,0,0,0,0,0,0,0,0,0,0,0,0,0,0.0154,0.0154,0,0.013,0.013,0.0129,0.0123,0.0124,0.0124,0.0124,0.0095,0.0094,0.0093,0,0,0,0,0,0,0,0,0,0,0,0,0,0.0169,0.0169,0.0154,0.0154,0.0154,0.013,0.013,0.0129,0.0123,0.0124,0.0124,0.0124,0.0095,0.0094,0.0093,0,0,0,0,0,0,0,0,0,0,0,0,0,0.0155,0.0169,0.0155,0.0149,0.0148,0.013,0.013,0.0129,0.0123,0.0124,0.0124,0.0124,0.0095,0.0094,0.0092,0.0077,0,0,0.0088,0.0087,0,0,0,0,0,0,0,0,0.0156,0.0154,0.015,0.0149,0.0148,0.0131,0.0124,0.0112,0.0123,0.0132,0.0124,0.0124,0.0106,0.0104,0.0098,0.0075,0.0074,0.0088,0.0087,0.0086,0.0086,0,0,0,0,0,0,0,0.0157,0.0155,0.0144,0.0149,0.0148,0.0138,0.0136,0.0121,0.0117,0.0131,0.0131,0.0129,0.0106,0.0099,0.0097,0.0074,0.0088,0.0086,0.0086,0.0085,0.0045,0.0045,0,0,0,0,0,0,0.0162,0.0156,0.0145,0.0144,0.0154,0.0138,0.0136,0.0135,0.0117,0.0115,0.0129,0.0129,0.0102,0.0099,0.0096,0.009,0.0086,0.0085,0.0084,0.0046,0.0045,0.0045,0,0,0,0,0,0,0.0162,0.0161,0.0146,0.015,0.0147,0.0137,0.0137,0.0135,0.0131,0.0116,0.0113,0.0127,0.0102,0.0098,0.0085,0.0089,0.0084,0.0083,0.0046,0.0045,0.0045,0.007,0,0,0,0,0,0,0.0163,0.0162,0.0162,0.015,0.0147,0.0137,0.0136,0.0134,0.0129,0.0129,0.0113,0.0111,0.0102,0.0088,0.0084,0.0086,0.0082,0.0046,0.0046,0.0045,0.0069,0.007,0.0072,0,0,0,0,0,0.0164,0.0161,0.0162,0.0161,0.0148,0.0137,0.0134,0.0128,0.0129,0.0126,0.0117,0.0112,0.0083,0.0086,0.0082,0.0084,0.0046,0.0046,0.0045,0.0069,0.007,0.0071,0,0,0,0,0,0,0.0163,0.016,0.0161,0.0157,0.015,0.0136,0.0132,0.0129,0.0119,0.012,0.0108,0.0104,0.0095,0.0083,0.0087,0.0071,0.0064,0.0063,0.0083,0.0085,0.0086,0.0092,0.008,0,0,0,0,0,0.0165,0.0165,0.0158,0.0155,0.0152,0.0143,0.0138,0.0134,0.0124,0.0121,0.011,0.0098,0.0089,0.0082,0.007,0.0059,0.0046,0.0057,0.0058,0.0059,0.0061,0.0045,0.0045,0.0044,0.0044,0.0044,0,0,0.0164,0.0162,0.0162,0.0155,0.015,0.0146,0.0141,0.0134,0.0133,0.0118,0.0112,0.0101,0.0086,0.0077,0.0072,0.0069,0.0052,0.0059,0.006,0.0061,0.0044,0.0044,0.0045,0.0044,0.0044,0.0044,0,0,0.0162,0.0162,0.0161,0.0158,0.0152,0.0147,0.0147,0.0136,0.0134,0.0125,0.0118,0.0109,0.0089,0.0082,0.0076,0.0074,0.0059,0.007,0.008,0.0065,0.0065,0.0065,0.0048,0.0046,0.007,0.007,0.007,0,0.016,0.0162,0.0158,0.0157,0.0157,0.015,0.015,0.0144,0.0131,0.013,0.0126,0.0104,0.0093,0.0086,0.0087,0.0078,0.0065,0.0078,0.0067,0.0067,0.0066,0.0049,0.0046,0.0071,0.0071,0.0071,0.0071,0,0.0158,0.0162,0.0161,0.0162,0.0159,0.0158,0.0153,0.0152,0.0149,0.0142,0.0135,0.0118,0.0106,0.0102,0.0094,0.0087,0.0077,0.0072,0.0066,0.0068,0.0049,0.0046,0.0073,0.0072,0.0072,0.0072,0,0,0.0151,0.0159,0.016,0.0168,0.0165,0.0164,0.0165,0.0164,0.0168,0.0154,0.0154,0.0137,0.0129,0.012,0.011,0.0097,0.0084,0.0085,0.0084,0.0073,0.0047,0.0035,0.003,0.0077,0.0076,0.0076,0.0036,0,0.0153,0.0161,0.0162,0.0172,0.0177,0.0177,0.0182,0.018,0.0174,0.0171,0.0156,0.015,0.0136,0.0133,0.0118,0.0094,0.0078,0.0095,0.0043,0.0041,0.0034,0.0027,0.0075,0.0033,0.0033,0.0032,0.0032,0,0.0151,0.016,0.0171,0.0189,0.0191,0.0196,0.0207,0.0209,0.0203,0.0198,0.0185,0.0171,0.0155,0.0142,0.0098,0.011,0.008,0.0059,0.0057,0.0035,0.0023,0.003,0.0027,0.0027,0.0027,0.0028,0.0028,0,0.0153,0.0167,0.0181,0.0185,0.02,0.0209,0.0218,0.0218,0.0226,0.0215,0.0215,0.0188,0.0179,0.0139,0.0093,0.0096,0.0041,0.0038,-0.0004,-0.0006,0.0008,0.0009,0.0002,0.0002,0.0003,0.0003,0.0003,0,0.0155,0.0167,0.0186,0.0195,0.0217,0.0222,0.024,0.0243,0.0249,0.0257,0.0231,0.0225,0.0178,0.0141,0.0096,0.0035,0.004,-0.0005,-0.0018,0.0019,0.0021,0.0006,0.0007,0.0001,0.0001,0.0002,0.0002,0,0.0154,0.0166,0.0186,0.0209,0.0219,0.0236,0.0263,0.0275,0.0276,0.0285,0.0285,0.0255,0.0204,0.0148,0.0081,0.0042,-0.0015,-0.0039,0.0001,-0.0008,-0.0053,-0.005,-0.0089,-0.0089,-0.009,-0.0091,-0.0091,0,0.0153,0.0164,0.0197,0.0213,0.0226,0.0252,0.0272,0.0287,0.0299,0.0301,0.0305,0.0264,0.0233,0.0129,0.0067,-0.0027,-0.0041,-0.007,-0.006,-0.0054,-0.0062,-0.0059,-0.0055,-0.0092,-0.0092,-0.0093,-0.0093,0,0.0153,0.0167,0.0185,0.022,0.0246,0.0275,0.0303,0.0314,0.0331,0.0334,0.0318,0.0267,0.0205,0.0126,0.005,-0.0016,-0.0049,-0.0077,-0.0076,-0.0067,-0.0059,-0.0066,-0.0061,-0.0095,-0.0095,-0.0095,-0.0094,0,0.0153,0.0166,0.0193,0.0223,0.0256,0.0286,0.0302,0.0318,0.0333,0.0337,0.0329,0.0266,0.0235,0.0131,0.0061,-0.0007,-0.0022,-0.0039,-0.004,-0.0038,-0.0012,0.0006,-0.0023,0,0,0,0,0,0.0149,0.0164,0.0193,0.0224,0.0258,0.0281,0.0317,0.0332,0.0348,0.034,0.0337,0.0279,0.0178,0.0134,0.0063,0.0042,-0.0039,-0.0044,-0.006,-0.0108,-0.0106,-0.0085,0,0,0,0,0,0,0.0146,0.017,0.0188,0.0221,0.0242,0.0281,0.0307,0.0322,0.0317,0.0324,0.027,0.0257,0.0156,0.0214,0.0058,0.0038,0.0018,-0.0088,-0.009,-0.011,-0.0107,-0.0105,-0.0083,0,0,0,0,0]}]]